Change the Weather History Date:

Monday, July 22, 2013

  Actual Average Record
Temperature  
Mean Temperature 76 °F -  
Max Temperature 89 °F 78 °F 89 °F (2012)
Min Temperature 64 °F 60 °F 51 °F (2000)
Cooling Degree Days 12    
Growing Degree Days 26 (Base 50)    
Moisture  
Dew Point 64 °F    
Average Humidity 71    
Maximum Humidity 94    
Minimum Humidity 36    
Precipitation  
Precipitation 0.00 in - - ()
Sea Level Pressure  
Sea Level Pressure 29.78 in    
Wind  
Wind Speed 8 mph (SSW)    
Max Wind Speed 15 mph    
Max Gust Speed 23 mph    
Visibility 8 miles    
Events Fog , Thunderstorm    
Averages and records for this station are not official NWS values.
T = Trace of Precipitation, MM = Missing Value Source: NWS Daily Summary

Daily Weather History Graph

Daily Weather History Graph

Search for Another Location

Airport or City:

Trip Planner

Search our weather history database for the weather conditions in past years. The results will help you decide how hot, cold, wet, or windy it might be!

Date:

Astronomy

Jul. 22, 2013 Rise Set
Actual Time 5:50 AM CDT 8:45 PM CDT
Civil Twilight 5:16 AM CDT 9:18 PM CDT
Nautical Twilight 4:33 AM CDT 10:01 PM CDT
Astronomical Twilight 3:43 AM CDT 10:51 PM CDT
Moon 8:28 PM CDT (7/22) 5:49 AM CDT (7/22)
Length of Visible Light 16h 01m
Length of Day
14h 54m
Full, 100% of the Moon is Illuminated
Jul 22
Full
Jul 22
Full
Jul 29
Last Quarter
Aug 6
New
Aug 14
First Quarter

Hourly Weather History & Observations

Time (CDT) Temp. Heat Index Dew Point Humidity Pressure Visibility Wind Dir Wind Speed Gust Speed Precip Events Conditions
12:16 AM 66.2 °F - 60.8 °F 83% 29.86 in 10.0 mi SSE 5.8 mph - N/A   Clear
12:36 AM 66.2 °F - 60.8 °F 83% 29.86 in 10.0 mi SSE 6.9 mph - N/A   Clear
12:57 AM 66.2 °F - 60.8 °F 83% 29.86 in 10.0 mi SSE 5.8 mph - N/A   Clear
1:16 AM 66.2 °F - 60.8 °F 83% 29.86 in 10.0 mi SSE 5.8 mph - N/A   Clear
1:36 AM 64.4 °F - 60.8 °F 88% 29.85 in 10.0 mi SSE 5.8 mph - N/A   Clear
1:56 AM 64.4 °F - 60.8 °F 88% 29.84 in 10.0 mi South 5.8 mph - N/A   Clear
2:16 AM 64.4 °F - 60.8 °F 88% 29.83 in 10.0 mi SSE 5.8 mph - N/A   Clear
2:36 AM 64.4 °F - 60.8 °F 88% 29.83 in 10.0 mi SSE 4.6 mph - N/A   Clear
2:56 AM 64.4 °F - 60.8 °F 88% 29.84 in 10.0 mi SSE 4.6 mph - N/A   Clear
3:16 AM 64.4 °F - 60.8 °F 88% 29.83 in 7.0 mi SSE 3.5 mph - N/A   Clear
3:36 AM 64.4 °F - 62.6 °F 94% 29.83 in 7.0 mi South 4.6 mph - N/A   Mostly Cloudy
3:56 AM 64.4 °F - 62.6 °F 94% 29.82 in 3.0 mi South 8.1 mph - N/A   Overcast
4:16 AM 64.4 °F - 62.6 °F 94% 29.79 in 0.5 mi South 9.2 mph - N/A Fog Fog
4:36 AM 64.4 °F - 62.6 °F 94% 29.80 in 0.5 mi South 6.9 mph - N/A Fog Fog
4:56 AM 64.4 °F - 62.6 °F 94% 29.80 in 0.5 mi South 6.9 mph - N/A Fog Fog
5:16 AM 64.4 °F - 62.6 °F 94% 29.80 in 0.8 mi South 6.9 mph - N/A   Overcast
5:36 AM 66.2 °F - 62.6 °F 88% 29.80 in 1.0 mi South 6.9 mph - N/A   Overcast
5:56 AM 66.2 °F - 62.6 °F 88% 29.81 in 2.5 mi South 5.8 mph - N/A   Overcast
6:16 AM 66.2 °F - 62.6 °F 88% 29.81 in 2.5 mi South 5.8 mph - N/A   Overcast
6:36 AM 66.2 °F - 62.6 °F 88% 29.81 in 2.0 mi South 5.8 mph - N/A   Overcast
6:57 AM 66.2 °F - 64.4 °F 94% 29.81 in 2.5 mi South 6.9 mph - N/A   Overcast
7:16 AM 66.2 °F - 64.4 °F 94% 29.81 in 2.5 mi South 8.1 mph - N/A   Overcast
7:36 AM 66.2 °F - 64.4 °F 94% 29.80 in 2.0 mi South 8.1 mph - N/A   Overcast
7:56 AM 66.2 °F - 64.4 °F 94% 29.80 in 3.0 mi South 8.1 mph - N/A   Overcast
8:16 AM 68.0 °F - 64.4 °F 88% 29.79 in 5.0 mi South 11.5 mph - N/A   Overcast
8:36 AM 69.8 °F - 66.2 °F 88% 29.79 in 7.0 mi South 6.9 mph - N/A   Overcast
8:56 AM 71.6 °F - 66.2 °F 83% 29.80 in 10.0 mi South 10.4 mph - N/A   Overcast
9:16 AM 71.6 °F - 66.2 °F 83% 29.80 in 10.0 mi South 6.9 mph - N/A   Mostly Cloudy
9:36 AM 73.4 °F - 66.2 °F 78% 29.80 in 10.0 mi South 10.4 mph - N/A   Scattered Clouds
9:56 AM 73.4 °F - 66.2 °F 78% 29.80 in 10.0 mi South 10.4 mph - N/A   Scattered Clouds
10:13 AM 75.2 °F - 66.2 °F 73% 29.80 in 10.0 mi South 13.8 mph - N/A   Scattered Clouds
10:36 AM 77.0 °F - 68.0 °F 74% 29.78 in 10.0 mi South 11.5 mph - N/A   Clear
10:56 AM 78.8 °F - 69.8 °F 74% 29.77 in 10.0 mi South 12.7 mph - N/A   Clear
11:16 AM 80.6 °F 83.9 °F 69.8 °F 70% 29.75 in 10.0 mi South 15.0 mph 20.7 mph N/A   Clear
11:36 AM 80.6 °F 83.9 °F 69.8 °F 70% 29.74 in 10.0 mi South 12.7 mph 17.3 mph N/A   Clear
11:56 AM 82.4 °F 86.3 °F 69.8 °F 66% 29.73 in 10.0 mi South 11.5 mph 17.3 mph N/A   Clear
12:16 PM 82.4 °F 86.3 °F 69.8 °F 66% 29.75 in 10.0 mi South 11.5 mph - N/A   Clear
12:36 PM 82.4 °F 87.2 °F 71.6 °F 70% 29.74 in 10.0 mi South 10.4 mph 17.3 mph N/A   Clear
12:56 PM 84.2 °F 89.6 °F 71.6 °F 66% 29.74 in 10.0 mi South 11.5 mph - N/A   Clear
1:16 PM 86.0 °F 91.8 °F 71.6 °F 62% 29.74 in 10.0 mi SSW 15.0 mph 23.0 mph N/A   Clear
1:36 PM 87.8 °F 93.8 °F 71.6 °F 58% 29.73 in 10.0 mi SSW 13.8 mph - N/A   Scattered Clouds
1:56 PM 87.8 °F 91.4 °F 68.0 °F 52% 29.73 in 10.0 mi SW 12.7 mph 19.6 mph N/A   Clear
2:16 PM 89.6 °F 93.4 °F 68.0 °F 49% 29.73 in 10.0 mi SW 13.8 mph 18.4 mph N/A   Clear
2:36 PM 89.6 °F 92.2 °F 66.2 °F 46% 29.72 in 10.0 mi WSW 12.7 mph - N/A   Scattered Clouds
2:56 PM 89.6 °F 91.1 °F 64.4 °F 43% 29.72 in 10.0 mi West 10.4 mph - N/A   Scattered Clouds
3:16 PM 89.6 °F 88.9 °F 59.0 °F 36% 29.71 in 10.0 mi West 10.4 mph 17.3 mph N/A   Scattered Clouds
3:36 PM 89.6 °F 88.9 °F 59.0 °F 36% 29.70 in 10.0 mi WNW 6.9 mph - N/A   Mostly Cloudy
3:56 PM 87.8 °F 88.5 °F 62.6 °F 43% 29.70 in 10.0 mi NW 10.4 mph 18.4 mph N/A Thunderstorm Overcast
4:16 PM 86.0 °F 86.6 °F 62.6 °F 45% 29.73 in 10.0 mi WNW 8.1 mph - N/A Thunderstorm Mostly Cloudy
4:36 PM 80.6 °F 82.7 °F 66.2 °F 61% 29.73 in 10.0 mi SSW 5.8 mph - N/A   Overcast
4:56 PM 82.4 °F 83.4 °F 62.6 °F 51% 29.72 in 10.0 mi South 4.6 mph - N/A Thunderstorm Mostly Cloudy
5:16 PM 84.2 °F 85.6 °F 64.4 °F 51% 29.71 in 10.0 mi SSW 8.1 mph - N/A   Scattered Clouds
5:36 PM 87.8 °F 90.4 °F 66.2 °F 49% 29.70 in 10.0 mi West 4.6 mph - N/A   Clear
5:56 PM 86.0 °F 88.2 °F 66.2 °F 51% 29.71 in 10.0 mi WNW 13.8 mph 17.3 mph N/A   Clear
6:16 PM 86.0 °F 88.2 °F 66.2 °F 51% 29.72 in 10.0 mi NW 12.7 mph - N/A   Scattered Clouds
6:36 PM 84.2 °F 85.6 °F 64.4 °F 51% 29.73 in 10.0 mi NW 13.8 mph 19.6 mph N/A   Scattered Clouds
6:56 PM 84.2 °F 85.0 °F 62.6 °F 48% 29.75 in 10.0 mi NW 15.0 mph 18.4 mph N/A   Clear
7:16 PM 82.4 °F 83.4 °F 62.6 °F 51% 29.75 in 10.0 mi NW 13.8 mph 18.4 mph N/A   Clear
7:36 PM 80.6 °F 81.8 °F 62.6 °F 54% 29.76 in 10.0 mi NW 13.8 mph - N/A   Clear
7:56 PM 80.6 °F 81.5 °F 60.8 °F 51% 29.75 in 10.0 mi NW 13.8 mph 20.7 mph N/A   Clear
8:16 PM 78.8 °F - 60.8 °F 54% 29.75 in 10.0 mi NW 11.5 mph - N/A   Clear
8:36 PM 77.0 °F - 60.8 °F 57% 29.76 in 10.0 mi WNW 10.4 mph - N/A   Clear
8:56 PM 75.2 °F - 60.8 °F 61% 29.78 in 10.0 mi WNW 11.5 mph - N/A   Clear
9:16 PM 75.2 °F - 60.8 °F 61% 29.79 in 10.0 mi NW 10.4 mph - N/A   Clear
9:36 PM 73.4 °F - 60.8 °F 65% 29.80 in 10.0 mi NW 11.5 mph - N/A   Clear
9:56 PM 73.4 °F - 60.8 °F 65% 29.80 in 10.0 mi NW 8.1 mph - N/A   Clear
10:16 PM 73.4 °F - 60.8 °F 65% 29.82 in 10.0 mi NW 9.2 mph - N/A   Clear
10:36 PM 71.6 °F - 60.8 °F 69% 29.82 in 10.0 mi WNW 8.1 mph - N/A   Clear
10:56 PM 71.6 °F - 60.8 °F 69% 29.83 in 10.0 mi WNW 9.2 mph - N/A   Clear
11:16 PM 69.8 °F - 60.8 °F 73% 29.83 in 10.0 mi NW 10.4 mph - N/A   Clear
11:36 PM 69.8 °F - 60.8 °F 73% 29.84 in 10.0 mi NW 9.2 mph - N/A   Clear
11:57 PM 69.8 °F - 59.0 °F 68% 29.84 in 10.0 mi NW 10.4 mph 16.1 mph N/A   Clear